Home   Weather   Roskilde   Past weeks

Flag for Denmark Past Weather in Roskilde, Denmark — Yesterday and Last 2 Weeks

Now
39 °F

Passing clouds.


Feels Like: 32 °F
Forecast: 38 / 43 °F
Wind: 12 mph from West

Location: Koebenhavn / Roskilde

Current Time: Jan 20, 2017 at 12:57:09 am

Latest Report: Jan 20, 2017 at 12:20 am


Visibility: 4 mi

Pressure: 30.48 "Hg

Humidity: 100%

Dew Point: 39 °F

Location of RoskildeLocation

Past Weather in Roskilde — Graph

°F

Roskilde Temperature Yesterday

Maximum temperature yesterday: 41 °F (at 12:20 pm)
Minimum temperature yesterday: 37 °F (at 12:20 am)
Average temperature yesterday: 39 °F

High & Low Weather Summary for the Past Weeks

 TemperatureHumidityPressure
High41 °F (Jan 19, 12:20 pm)100% (Jan 7, 8:50 am)30.77 "Hg (Jan 7, 8:50 am)
Low12 °F (Jan 6, 12:50 am)45% (Jan 5, 11:20 am)29.09 "Hg (Jan 11, 2:50 pm)
Average31 °F89%30.07 "Hg
* Reported Jan 4 11:20 pm — Jan 19 11:20 pm, Roskilde, Weather by CustomWeather, © 2017

Note: Actual official high and low records may vary slightly from our data, if they occured in-between our weather recording intervals... More about our weather records

Advertising

Roskilde Weather History for the Previous 24 Hours

Scroll right to see more
 ConditionsComfort  
Time TempWeatherWind HumidityBarometerVisibility
11:20 pm
Thu, Jan 19
39 °FPassing clouds.14 mph100%30.48 "Hg5 mi
10:50 pm39 °FLow clouds.15 mph100%30.48 "Hg4 mi
10:20 pm39 °FPassing clouds.14 mph100%30.51 "Hg4 mi
9:50 pm39 °FPassing clouds.12 mph93%30.51 "Hg6 mi
9:20 pm39 °FChilly.12 mph93%30.51 "HgN/A
8:50 pm37 °FChilly.12 mph100%30.51 "HgN/A
8:20 pm37 °FChilly.12 mph100%30.51 "HgN/A
7:50 pm39 °FChilly.12 mph93%30.51 "HgN/A
7:20 pm39 °FChilly.13 mph93%30.51 "HgN/A
6:50 pm39 °FChilly.10 mph93%30.48 "HgN/A
6:20 pm39 °FChilly.12 mph93%30.48 "HgN/A
5:50 pm39 °FChilly.10 mph93%30.48 "HgN/A
5:20 pm39 °FChilly.13 mph93%30.48 "HgN/A
4:50 pm39 °FChilly.12 mph93%30.51 "HgN/A
4:20 pm39 °FChilly.10 mph100%30.51 "HgN/A
3:50 pm41 °FQuite cool.10 mph93%30.51 "HgN/A
3:20 pm41 °FQuite cool.13 mph93%30.51 "HgN/A
2:50 pm41 °FPassing clouds.14 mph93%30.48 "HgN/A
2:20 pm41 °FBroken clouds.14 mph100%30.51 "HgN/A
1:50 pm41 °FPartly sunny.14 mph93%30.51 "HgN/A
1:20 pm41 °FMostly cloudy.14 mph93%30.51 "HgN/A
12:50 pm41 °FBroken clouds.13 mph93%30.51 "HgN/A
12:20 pm41 °FBroken clouds.12 mph93%30.51 "HgN/A
11:50 am39 °FMostly cloudy.10 mph100%30.51 "Hg5 mi
11:20 am39 °FMostly cloudy.9 mph100%30.54 "Hg3 mi
10:50 am39 °FFog.10 mph100%30.54 "Hg2 mi
10:20 am39 °FFog.9 mph93%30.54 "Hg2 mi
9:50 am37 °FMostly cloudy.9 mph100%30.54 "Hg4 mi
9:20 am37 °FFog.8 mph100%30.54 "Hg2 mi
8:50 am37 °FFog.10 mph100%30.54 "Hg1 mi
8:20 am37 °FFog.10 mph100%30.51 "Hg1 mi
7:50 am37 °FFog.10 mph100%30.51 "Hg1 mi
7:20 am37 °FFog.10 mph100%30.51 "Hg2 mi
6:50 am37 °FFog.10 mph100%30.51 "Hg2 mi
6:20 am37 °FFog.12 mph100%30.51 "Hg1 mi
5:50 am37 °FFog.12 mph100%30.51 "Hg1 mi
5:20 am37 °FFog.10 mph100%30.51 "Hg1 mi
4:50 am37 °FFog.12 mph100%30.51 "Hg2 mi
4:20 am37 °FFog.12 mph100%30.51 "Hg2 mi
3:50 am37 °FFog.13 mph100%30.51 "Hg1 mi
3:20 am37 °FFog.12 mph100%30.51 "Hg2 mi
2:50 am37 °FFog.13 mph100%30.54 "Hg1 mi
2:20 am37 °FFog.13 mph100%30.54 "Hg2 mi
1:50 am37 °FFog.13 mph100%30.54 "Hg2 mi
1:20 am37 °FFog.12 mph100%30.54 "Hg2 mi
12:50 am37 °FFog.13 mph93%30.54 "Hg2 mi
12:20 am37 °FFog.13 mph100%30.54 "Hg2 mi
Weather by CustomWeather, © 2017

See weather overviewHow to use our weather pages